Change the Weather History Date:

Thursday, April 18, 2013

  Actual Average Record
Temperature  
Mean Temperature 71 °F 63 °F  
Max Temperature 83 °F 77 °F 92 °F (2006)
Min Temperature 58 °F 50 °F 33 °F (1999)
Degree Days  
Heating Degree Days 0 4  
Month to date heating degree days 77 98  
Since 1 July heating degree days 2398 2502  
Cooling Degree Days 6 2  
Month to date cooling degree days 53 27  
Year to date cooling degree days 72 51  
Growing Degree Days 23 (Base 50)    
Moisture  
Dew Point 65 °F    
Average Humidity 73    
Maximum Humidity 87    
Minimum Humidity 58    
Precipitation  
Precipitation 0.44 in 0.16 in 2.76 in (1901)
Month to date precipitation 3.45 3.00  
Year to date precipitation 26.03 19.15  
Sea Level Pressure  
Sea Level Pressure 29.87 in    
Wind  
Wind Speed 13 mph (South)    
Max Wind Speed 28 mph    
Max Gust Speed 36 mph    
Visibility 10 miles    
Events Rain    
T = Trace of Precipitation, MM = Missing Value Source: NWS Daily Summary

Daily Weather History Graph

Daily Weather History Graph

Search for Another Location

Airport or City:

Trip Planner

Search our weather history database for the weather conditions in past years. The results will help you decide how hot, cold, wet, or windy it might be!

Date:

Astronomy

Apr. 18, 2013 Rise Set
Actual Time 6:22 AM CDT 7:26 PM CDT
Civil Twilight 5:56 AM CDT 7:52 PM CDT
Nautical Twilight 5:26 AM CDT 8:22 PM CDT
Astronomical Twilight 4:55 AM CDT 8:53 PM CDT
Moon 12:37 PM CDT (4/18) 1:37 AM CDT (4/18)
Length of Visible Light 13h 55m
Length of Day
13h 04m
First Quarter, 52% of the Moon is Illuminated
Apr 18
First Quarter
Apr 25
Full
May 2
Last Quarter
May 9
New
May 17
First Quarter

Hourly Weather History & Observations

Time (CDT) Temp. Heat Index Dew Point Humidity Pressure Visibility Wind Dir Wind Speed Gust Speed Precip Events Conditions
12:58 AM 69.1 °F - 63.0 °F 81% 29.98 in 10.0 mi South 11.5 mph - N/A   Clear
1:58 AM 68.0 °F - 62.1 °F 81% 29.97 in 10.0 mi South 9.2 mph - N/A   Clear
2:58 AM 68.0 °F - 61.0 °F 78% 29.95 in 10.0 mi South 6.9 mph - N/A   Overcast
3:58 AM 66.0 °F - 60.1 °F 81% 29.92 in 10.0 mi SSE 5.8 mph - N/A   Clear
4:58 AM 64.0 °F - 59.0 °F 84% 29.91 in 10.0 mi SSE 6.9 mph - N/A   Clear
5:58 AM 64.0 °F - 61.0 °F 90% 29.91 in 10.0 mi South 8.1 mph - N/A   Clear
6:58 AM 66.0 °F - 62.1 °F 87% 29.93 in 10.0 mi SSE 6.9 mph - N/A   Clear
7:58 AM 66.9 °F - 63.0 °F 87% 29.94 in 10.0 mi SSE 11.5 mph - N/A   Clear
8:58 AM 69.1 °F - 64.0 °F 84% 29.93 in 10.0 mi South 12.7 mph - N/A   Clear
9:58 AM 71.1 °F - 64.0 °F 78% 29.92 in 10.0 mi SSE 10.4 mph - N/A   Clear
10:58 AM 75.9 °F - 63.0 °F 64% 29.91 in 10.0 mi South 15.0 mph - N/A   Clear
11:58 AM 78.1 °F - 64.0 °F 62% 29.90 in 10.0 mi SSE 10.4 mph 20.7 mph N/A   Partly Cloudy
12:58 PM 80.1 °F 81.9 °F 64.9 °F 60% 29.89 in 10.0 mi SSE 17.3 mph 21.9 mph N/A   Mostly Cloudy
1:58 PM 81.0 °F 82.7 °F 64.9 °F 58% 29.88 in 10.0 mi South 17.3 mph 27.6 mph N/A   Overcast
2:58 PM 82.9 °F 85.0 °F 66.0 °F 56% 29.86 in 10.0 mi South 15.0 mph - N/A   Mostly Cloudy
3:58 PM 81.0 °F 82.7 °F 64.9 °F 58% 29.82 in 10.0 mi South 18.4 mph 25.3 mph N/A   Scattered Clouds
4:58 PM 82.0 °F 84.1 °F 66.0 °F 58% 29.81 in 10.0 mi South 15.0 mph 23.0 mph N/A   Clear
5:58 PM 79.0 °F - 66.0 °F 64% 29.79 in 10.0 mi SSE 11.5 mph - N/A   Partly Cloudy
6:58 PM 77.0 °F - 66.9 °F 71% 29.77 in 10.0 mi South 15.0 mph - N/A   Clear
7:58 PM 75.9 °F - 66.9 °F 74% 29.77 in 10.0 mi South 20.7 mph 26.5 mph N/A   Partly Cloudy
8:58 PM 75.0 °F - 68.0 °F 79% 29.78 in 10.0 mi South 19.6 mph 28.8 mph N/A   Overcast
9:30 PM 75.2 °F - 68.0 °F 78% 29.78 in 10.0 mi South 23.0 mph 34.5 mph N/A   Overcast
9:58 PM 75.0 °F - 68.0 °F 79% 29.78 in 10.0 mi South 17.3 mph 31.1 mph N/A   Overcast
10:58 PM 73.9 °F - 69.1 °F 85% 29.76 in 10.0 mi South 21.9 mph 29.9 mph 0.00 in Rain Light Rain
11:58 PM 72.0 °F - 70.0 °F 93% 29.76 in 1.5 mi WSW 18.4 mph 25.3 mph 0.03 in Rain Heavy Rain